EWG71CL EDDS-EDDB

Flight info

Callsign EWG71CL
Flight time 0h 58m
Altitude 27000
Route DKB9B DKB N869 ANELA Z715 ABKIS Q240 BESIP T203 ATGUP ATGUP1R
Aircraft A320/M-SDE3FGHIRWY/LB1

Departure

Time 2026-05-05 22:02
Airport Stuttgart Airport (EDDS)

Arrival

Time 2026-05-05 23:01
Airport Berlin Brandenburg Airport (EDDB)
Time Latitude Longitude Altitude Speed Heading
2026-05-05 21:30 48.68870 9.19288 1316 ft 0 kts 344°
2026-05-05 21:48 48.68868 9.19289 1315 ft 2 kts 344°
2026-05-05 21:48 48.68843 9.19300 1315 ft 4 kts 344°
2026-05-05 21:48 48.68822 9.19309 1315 ft 4 kts 350°
2026-05-05 21:49 48.68799 9.19305 1314 ft 4 kts 44°
2026-05-05 21:49 48.68787 9.19277 1315 ft 1 kts 74°
2026-05-05 21:52 48.68794 9.19318 1314 ft 8 kts 74°
2026-05-05 21:52 48.68809 9.19395 1313 ft 8 kts 74°
2026-05-05 21:52 48.68824 9.19473 1312 ft 8 kts 74°
2026-05-05 21:53 48.68839 9.19553 1310 ft 8 kts 74°
2026-05-05 21:53 48.68855 9.19641 1309 ft 9 kts 74°
2026-05-05 21:53 48.68872 9.19733 1307 ft 10 kts 74°
2026-05-05 21:53 48.68888 9.19840 1303 ft 11 kts 92°
2026-05-05 21:54 48.68822 9.19916 1297 ft 15 kts 129°
2026-05-05 21:54 48.68846 9.20069 1294 ft 15 kts 73°
2026-05-05 21:54 48.68875 9.20231 1290 ft 17 kts 73°
2026-05-05 21:54 48.68907 9.20394 1290 ft 16 kts 74°
2026-05-05 21:55 48.68937 9.20554 1283 ft 15 kts 74°
2026-05-05 21:55 48.68965 9.20701 1280 ft 15 kts 73°
2026-05-05 21:55 48.68996 9.20864 1275 ft 17 kts 73°
2026-05-05 21:55 48.69028 9.21028 1270 ft 15 kts 74°
2026-05-05 21:56 48.69058 9.21190 1271 ft 17 kts 74°
2026-05-05 21:56 48.69091 9.21366 1262 ft 18 kts 74°
2026-05-05 21:56 48.69127 9.21558 1262 ft 20 kts 72°
2026-05-05 21:56 48.69169 9.21774 1257 ft 23 kts 74°
2026-05-05 21:57 48.69216 9.22025 1251 ft 26 kts 73°
2026-05-05 21:57 48.69261 9.22263 1246 ft 22 kts 73°
2026-05-05 21:57 48.69300 9.22467 1240 ft 20 kts 74°
2026-05-05 21:57 48.69339 9.22675 1232 ft 21 kts 74°
2026-05-05 21:58 48.69380 9.22890 1228 ft 21 kts 74°
2026-05-05 21:58 48.69422 9.23109 1223 ft 22 kts 74°
2026-05-05 21:58 48.69464 9.23333 1219 ft 21 kts 74°
2026-05-05 21:58 48.69504 9.23542 1214 ft 20 kts 74°
2026-05-05 21:59 48.69539 9.23732 1210 ft 17 kts 74°
2026-05-05 21:59 48.69568 9.23883 1207 ft 14 kts 73°
2026-05-05 21:59 48.69596 9.24027 1204 ft 14 kts 74°
2026-05-05 21:59 48.69600 9.24179 1201 ft 16 kts 111°
2026-05-05 22:00 48.69542 9.24295 1193 ft 9 kts 153°
2026-05-05 22:00 48.69505 9.24313 1191 ft 0 kts 163°
2026-05-05 22:01 48.69482 9.24323 1190 ft 9 kts 165°
2026-05-05 22:01 48.69418 9.24311 1191 ft 8 kts 204°
2026-05-05 22:01 48.69384 9.24268 1192 ft 5 kts 238°
2026-05-05 22:01 48.69364 9.24180 1194 ft 25 kts 253°
2026-05-05 22:02 48.69246 9.23555 1207 ft 94 kts 254°
2026-05-05 22:02 48.69013 9.22328 1233 ft 146 kts 254°
2026-05-05 22:02 48.68713 9.20743 1609 ft 161 kts 254°
2026-05-05 22:02 48.68422 9.19129 2358 ft 158 kts 252°
2026-05-05 22:03 48.68112 9.17529 3055 ft 160 kts 251°
2026-05-05 22:03 48.67751 9.15802 3318 ft 183 kts 251°
2026-05-05 22:03 48.67350 9.13841 3580 ft 208 kts 252°
2026-05-05 22:03 48.66971 9.11627 4100 ft 224 kts 264°
2026-05-05 22:04 48.67348 9.09324 4922 ft 233 kts 295°
2026-05-05 22:04 48.68279 9.07331 5785 ft 240 kts 310°
2026-05-05 22:04 48.69761 9.06029 6457 ft 262 kts 338°
2026-05-05 22:04 48.71582 9.05274 6997 ft 276 kts 339°
2026-05-05 22:05 48.73451 9.04469 7758 ft 284 kts 344°
2026-05-05 22:05 48.75454 9.04356 8522 ft 296 kts
2026-05-05 22:05 48.77427 9.05389 9307 ft 306 kts 29°
2026-05-05 22:05 48.79031 9.07534 10051 ft 313 kts 52°
2026-05-05 22:06 48.80351 9.10299 10377 ft 335 kts 54°
2026-05-05 22:06 48.81737 9.13287 10642 ft 356 kts 55°
2026-05-05 22:06 48.83153 9.16366 11226 ft 363 kts 55°
2026-05-05 22:06 48.84606 9.19529 11946 ft 367 kts 55°
2026-05-05 22:07 48.86075 9.22722 12662 ft 371 kts 54°
2026-05-05 22:07 48.87567 9.25958 13323 ft 376 kts 54°
2026-05-05 22:07 48.89076 9.29231 13978 ft 380 kts 54°
2026-05-05 22:07 48.90590 9.32532 14610 ft 383 kts 57°
2026-05-05 22:08 48.91848 9.36109 15253 ft 385 kts 68°
2026-05-05 22:08 48.92838 9.39893 15913 ft 386 kts 69°
2026-05-05 22:08 48.93814 9.43654 16572 ft 388 kts 69°
2026-05-05 22:08 48.94805 9.47481 17236 ft 390 kts 70°
2026-05-05 22:09 48.95803 9.51329 17880 ft 392 kts 70°
2026-05-05 22:09 48.96806 9.55201 18463 ft 394 kts 70°
2026-05-05 22:09 48.97812 9.59090 19007 ft 396 kts 70°
2026-05-05 22:09 48.98823 9.63008 19538 ft 399 kts 70°
2026-05-05 22:10 48.99836 9.66948 20065 ft 401 kts 70°
2026-05-05 22:10 49.00855 9.70915 20577 ft 403 kts 70°
2026-05-05 22:10 49.01879 9.74907 21049 ft 406 kts 70°
2026-05-05 22:10 49.02895 9.78880 21538 ft 409 kts 70°
2026-05-05 22:11 49.03930 9.82932 22038 ft 412 kts 70°
2026-05-05 22:11 49.04968 9.87003 22527 ft 414 kts 71°
2026-05-05 22:11 49.06013 9.91107 23004 ft 416 kts 71°
2026-05-05 22:11 49.07061 9.95233 23469 ft 419 kts 71°
2026-05-05 22:12 49.08114 9.99379 23855 ft 421 kts 71°
2026-05-05 22:12 49.09178 10.03567 24218 ft 424 kts 71°
2026-05-05 22:12 49.10239 10.07760 24625 ft 425 kts 71°
2026-05-05 22:12 49.11305 10.11988 25015 ft 427 kts 71°
2026-05-05 22:13 49.12357 10.16175 25374 ft 430 kts 71°
2026-05-05 22:13 49.13488 10.20410 25715 ft 433 kts 66°
2026-05-05 22:13 49.15016 10.24403 26043 ft 439 kts 56°
2026-05-05 22:13 49.16973 10.28011 26356 ft 443 kts 47°
2026-05-05 22:14 49.19150 10.31366 26684 ft 446 kts 46°
2026-05-05 22:14 49.21338 10.34753 26862 ft 446 kts 46°
2026-05-05 22:14 49.23489 10.38087 26874 ft 437 kts 47°
2026-05-05 22:14 49.25592 10.41339 26871 ft 434 kts 46°
2026-05-05 22:15 49.27720 10.44600 26868 ft 433 kts 46°
2026-05-05 22:15 49.29846 10.47840 26869 ft 431 kts 46°
2026-05-05 22:15 49.31967 10.51074 26869 ft 430 kts 46°
2026-05-05 22:15 49.34084 10.54313 26869 ft 430 kts 46°
2026-05-05 22:16 49.36192 10.57572 26870 ft 430 kts 47°
2026-05-05 22:16 49.38261 10.60870 26869 ft 429 kts 48°
2026-05-05 22:16 49.40311 10.64207 26868 ft 429 kts 48°
2026-05-05 22:16 49.42354 10.67558 26868 ft 429 kts 48°
2026-05-05 22:17 49.44384 10.70836 26866 ft 429 kts 47°
2026-05-05 22:17 49.46463 10.74137 26865 ft 429 kts 47°
2026-05-05 22:17 49.48550 10.77416 26853 ft 429 kts 47°
2026-05-05 22:17 49.50644 10.80694 26840 ft 429 kts 47°
2026-05-05 22:18 49.52737 10.83976 26841 ft 430 kts 47°
2026-05-05 22:18 49.54824 10.87264 26840 ft 430 kts 47°
2026-05-05 22:18 49.56909 10.90565 26843 ft 430 kts 47°
2026-05-05 22:18 49.58991 10.93872 26844 ft 430 kts 47°
2026-05-05 22:19 49.61048 10.97142 26846 ft 430 kts 47°
2026-05-05 22:19 49.63129 11.00453 26844 ft 430 kts 47°
2026-05-05 22:19 49.65213 11.03775 26843 ft 430 kts 47°
2026-05-05 22:19 49.67295 11.07095 26837 ft 430 kts 48°
2026-05-05 22:20 49.69373 11.10418 26839 ft 430 kts 48°
2026-05-05 22:20 49.71447 11.13741 26842 ft 430 kts 48°
2026-05-05 22:20 49.73520 11.17070 26841 ft 429 kts 48°
2026-05-05 22:20 49.75562 11.20348 26840 ft 429 kts 48°
2026-05-05 22:21 49.77770 11.23456 26836 ft 431 kts 39°
2026-05-05 22:21 49.80192 11.26192 26821 ft 431 kts 38°
2026-05-05 22:21 49.82621 11.28923 26822 ft 431 kts 38°
2026-05-05 22:21 49.85046 11.31659 26821 ft 431 kts 38°
2026-05-05 22:22 49.87465 11.34401 26815 ft 431 kts 38°
2026-05-05 22:22 49.89879 11.37147 26818 ft 430 kts 38°
2026-05-05 22:22 49.92287 11.39903 26822 ft 430 kts 40°
2026-05-05 22:22 49.94502 11.42983 26822 ft 427 kts 47°
2026-05-05 22:23 49.96593 11.46254 26793 ft 427 kts 48°
2026-05-05 22:23 49.98658 11.49487 26790 ft 428 kts 48°
2026-05-05 22:23 50.00752 11.52773 26790 ft 428 kts 48°
2026-05-05 22:23 50.02847 11.56064 26789 ft 429 kts 48°
2026-05-05 22:24 50.04946 11.59365 26792 ft 429 kts 48°
2026-05-05 22:24 50.07043 11.62670 26784 ft 429 kts 49°
2026-05-05 22:24 50.09122 11.65993 26790 ft 428 kts 49°
2026-05-05 22:24 50.11170 11.69361 26798 ft 428 kts 50°
2026-05-05 22:25 50.13194 11.72754 26801 ft 427 kts 50°
2026-05-05 22:25 50.15212 11.76154 26806 ft 427 kts 50°
2026-05-05 22:25 50.17200 11.79504 26803 ft 427 kts 50°
2026-05-05 22:25 50.19092 11.83051 26797 ft 423 kts 58°
2026-05-05 22:26 50.20656 11.86917 26808 ft 421 kts 62°
2026-05-05 22:26 50.22184 11.90823 26801 ft 421 kts 62°
2026-05-05 22:26 50.23711 11.94718 26804 ft 421 kts 62°
2026-05-05 22:26 50.25245 11.98613 26803 ft 421 kts 62°
2026-05-05 22:27 50.26785 12.02501 26806 ft 421 kts 61°
2026-05-05 22:27 50.28386 12.06338 26794 ft 421 kts 60°
2026-05-05 22:27 50.30017 12.10061 26801 ft 421 kts 59°
2026-05-05 22:27 50.31693 12.13803 26803 ft 420 kts 58°
2026-05-05 22:28 50.33380 12.17541 26803 ft 420 kts 58°
2026-05-05 22:28 50.34959 12.21361 26791 ft 416 kts 65°
2026-05-05 22:28 50.36324 12.25356 26791 ft 416 kts 66°
2026-05-05 22:28 50.37676 12.29357 26794 ft 415 kts 66°
2026-05-05 22:29 50.39022 12.33362 26791 ft 415 kts 66°
2026-05-05 22:29 50.40362 12.37367 26784 ft 415 kts 66°
2026-05-05 22:29 50.41682 12.41327 26785 ft 415 kts 66°
2026-05-05 22:29 50.43017 12.45336 26780 ft 415 kts 66°
2026-05-05 22:30 50.44354 12.49348 26784 ft 415 kts 66°
2026-05-05 22:30 50.45689 12.53353 26783 ft 415 kts 66°
2026-05-05 22:30 50.47026 12.57363 26783 ft 415 kts 66°
2026-05-05 22:30 50.48363 12.61375 26752 ft 415 kts 66°
2026-05-05 22:31 50.49699 12.65389 26755 ft 415 kts 66°
2026-05-05 22:31 50.51036 12.69407 26758 ft 415 kts 66°
2026-05-05 22:31 50.52354 12.73378 26761 ft 416 kts 66°
2026-05-05 22:31 50.53687 12.77408 26764 ft 416 kts 66°
2026-05-05 22:32 50.55020 12.81453 26762 ft 416 kts 66°
2026-05-05 22:32 50.56348 12.85496 26759 ft 416 kts 66°
2026-05-05 22:32 50.57666 12.89512 26521 ft 410 kts 66°
2026-05-05 22:32 50.58968 12.93483 26266 ft 407 kts 66°
2026-05-05 22:33 50.60264 12.97428 26020 ft 405 kts 66°
2026-05-05 22:33 50.61537 13.01306 25781 ft 403 kts 65°
2026-05-05 22:33 50.63025 13.05040 25536 ft 404 kts 56°
2026-05-05 22:33 50.64892 13.08371 25284 ft 406 kts 46°
2026-05-05 22:34 50.67004 13.11331 25042 ft 406 kts 44°
2026-05-05 22:34 50.69121 13.14266 24802 ft 405 kts 44°
2026-05-05 22:34 50.71233 13.17204 24571 ft 404 kts 44°
2026-05-05 22:34 50.73333 13.20133 24314 ft 403 kts 44°
2026-05-05 22:35 50.75438 13.23072 24016 ft 404 kts 44°
2026-05-05 22:35 50.77540 13.26015 23665 ft 403 kts 44°
2026-05-05 22:35 50.79604 13.28915 23321 ft 402 kts 44°
2026-05-05 22:35 50.81684 13.31839 22897 ft 400 kts 44°
2026-05-05 22:36 50.83764 13.34758 22495 ft 399 kts 44°
2026-05-05 22:36 50.85836 13.37667 22096 ft 397 kts 44°
2026-05-05 22:36 50.87894 13.40563 21703 ft 395 kts 44°
2026-05-05 22:36 50.89941 13.43450 21316 ft 393 kts 43°
2026-05-05 22:37 50.92110 13.46069 20932 ft 392 kts 33°
2026-05-05 22:37 50.94525 13.48080 20553 ft 392 kts 23°
2026-05-05 22:37 50.97110 13.49426 20182 ft 391 kts 13°
2026-05-05 22:37 50.99744 13.50188 19819 ft 389 kts
2026-05-05 22:38 51.02411 13.50894 19459 ft 388 kts
2026-05-05 22:38 51.05063 13.51605 19098 ft 385 kts 10°
2026-05-05 22:38 51.07694 13.52315 18747 ft 383 kts 10°
2026-05-05 22:38 51.10311 13.53024 18396 ft 381 kts 10°
2026-05-05 22:39 51.12914 13.53733 18038 ft 379 kts 10°
2026-05-05 22:39 51.15502 13.54438 17640 ft 376 kts 10°
2026-05-05 22:39 51.18076 13.55140 17242 ft 374 kts 10°
2026-05-05 22:39 51.20637 13.55837 16848 ft 372 kts 10°
2026-05-05 22:40 51.23141 13.56515 16465 ft 370 kts 10°
2026-05-05 22:40 51.25672 13.57201 16078 ft 367 kts 10°
2026-05-05 22:40 51.28188 13.57884 15698 ft 366 kts 10°
2026-05-05 22:40 51.30691 13.58565 15326 ft 364 kts 10°
2026-05-05 22:41 51.33183 13.59243 14942 ft 362 kts 10°
2026-05-05 22:41 51.35654 13.59913 14587 ft 359 kts 10°
2026-05-05 22:41 51.38090 13.60574 14361 ft 351 kts 10°
2026-05-05 22:41 51.40479 13.61223 14166 ft 344 kts 10°
2026-05-05 22:42 51.42798 13.61854 14085 ft 333 kts 10°
2026-05-05 22:42 51.45017 13.62458 14015 ft 323 kts 10°
2026-05-05 22:42 51.47213 13.63060 13943 ft 319 kts 11°
2026-05-05 22:42 51.49398 13.63666 13772 ft 319 kts 10°
2026-05-05 22:43 51.51578 13.64271 13506 ft 317 kts 10°
2026-05-05 22:43 51.53762 13.64720 13267 ft 316 kts
2026-05-05 22:43 51.55946 13.64594 13029 ft 314 kts 352°
2026-05-05 22:43 51.58079 13.63887 12780 ft 312 kts 342°
2026-05-05 22:44 51.60066 13.62651 12571 ft 309 kts 332°
2026-05-05 22:44 51.61947 13.60996 12340 ft 307 kts 329°
2026-05-05 22:44 51.63805 13.59330 12115 ft 305 kts 329°
2026-05-05 22:44 51.65661 13.57672 11887 ft 304 kts 329°
2026-05-05 22:45 51.67510 13.56023 11669 ft 304 kts 329°
2026-05-05 22:45 51.69348 13.54383 11441 ft 299 kts 329°
2026-05-05 22:45 51.71153 13.52772 11214 ft 294 kts 329°
2026-05-05 22:45 51.72928 13.51185 11012 ft 289 kts 329°
2026-05-05 22:46 51.74671 13.49625 10814 ft 284 kts 329°
2026-05-05 22:46 51.76352 13.48117 10622 ft 277 kts 330°
2026-05-05 22:46 51.78025 13.46613 10434 ft 274 kts 330°
2026-05-05 22:46 51.79686 13.45117 10242 ft 273 kts 330°
2026-05-05 22:47 51.81339 13.43624 10047 ft 272 kts 330°
2026-05-05 22:47 51.82987 13.42135 9854 ft 271 kts 330°
2026-05-05 22:47 51.84629 13.40650 9660 ft 270 kts 330°
2026-05-05 22:47 51.86269 13.39164 9446 ft 270 kts 330°
2026-05-05 22:48 51.87903 13.37685 9238 ft 269 kts 330°
2026-05-05 22:48 51.89508 13.36234 9037 ft 267 kts 330°
2026-05-05 22:48 51.91128 13.34766 8825 ft 266 kts 330°
2026-05-05 22:48 51.92738 13.33309 8609 ft 264 kts 330°
2026-05-05 22:49 51.94340 13.31858 8414 ft 263 kts 330°
2026-05-05 22:49 51.95933 13.30413 8210 ft 262 kts 330°
2026-05-05 22:49 51.97519 13.28969 8023 ft 261 kts 330°
2026-05-05 22:49 51.99099 13.27531 7811 ft 260 kts 330°
2026-05-05 22:50 52.00670 13.26101 7610 ft 258 kts 330°
2026-05-05 22:50 52.02229 13.24682 7412 ft 254 kts 330°
2026-05-05 22:50 52.03736 13.23309 7221 ft 249 kts 330°
2026-05-05 22:50 52.05230 13.21947 7020 ft 244 kts 330°
2026-05-05 22:51 52.06697 13.20605 6823 ft 239 kts 330°
2026-05-05 22:51 52.08134 13.19289 6632 ft 235 kts 330°
2026-05-05 22:51 52.09551 13.17989 6431 ft 232 kts 330°
2026-05-05 22:51 52.10951 13.16705 6248 ft 229 kts 330°
2026-05-05 22:52 52.12329 13.15442 6044 ft 226 kts 331°
2026-05-05 22:52 52.13688 13.14197 5866 ft 221 kts 331°
2026-05-05 22:52 52.15004 13.12990 5686 ft 213 kts 332°
2026-05-05 22:52 52.16254 13.11840 5469 ft 206 kts 332°
2026-05-05 22:53 52.17490 13.10702 5289 ft 204 kts 332°
2026-05-05 22:53 52.18719 13.09574 5090 ft 202 kts 332°
2026-05-05 22:53 52.19934 13.08459 4891 ft 199 kts 332°
2026-05-05 22:53 52.21140 13.07355 4680 ft 198 kts 335°
2026-05-05 22:54 52.22436 13.06738 4487 ft 193 kts 359°
2026-05-05 22:54 52.23741 13.07007 4286 ft 188 kts 21°
2026-05-05 22:54 52.24854 13.08054 4077 ft 185 kts 43°
2026-05-05 22:54 52.25629 13.09684 3875 ft 181 kts 64°
2026-05-05 22:55 52.26092 13.11564 3675 ft 181 kts 69°
2026-05-05 22:55 52.26550 13.13470 3482 ft 180 kts 69°
2026-05-05 22:55 52.27000 13.15370 3305 ft 179 kts 69°
2026-05-05 22:55 52.27449 13.17255 3150 ft 177 kts 69°
2026-05-05 22:56 52.27889 13.19086 3051 ft 171 kts 69°
2026-05-05 22:56 52.28323 13.20888 2989 ft 169 kts 68°
2026-05-05 22:56 52.28751 13.22664 2998 ft 168 kts 69°
2026-05-05 22:56 52.29177 13.24435 2974 ft 167 kts 69°
2026-05-05 22:57 52.29598 13.26184 2821 ft 167 kts 69°
2026-05-05 22:57 52.30021 13.27945 2622 ft 165 kts 69°
2026-05-05 22:57 52.30424 13.29620 2414 ft 152 kts 70°
2026-05-05 22:57 52.30799 13.31184 2211 ft 145 kts 69°
2026-05-05 22:58 52.31164 13.32705 2028 ft 142 kts 70°
2026-05-05 22:58 52.31523 13.34204 1833 ft 141 kts 69°
2026-05-05 22:58 52.31879 13.35690 1653 ft 140 kts 69°
2026-05-05 22:58 52.32234 13.37175 1455 ft 141 kts 69°
2026-05-05 22:59 52.32590 13.38663 1277 ft 141 kts 69°
2026-05-05 22:59 52.32941 13.40121 1094 ft 139 kts 69°
2026-05-05 22:59 52.33294 13.41614 884 ft 142 kts 69°
2026-05-05 22:59 52.33653 13.43125 700 ft 143 kts 65°
2026-05-05 23:00 52.34360 13.46086 318 ft 140 kts 65°
2026-05-05 23:00 52.34707 13.47553 164 ft 135 kts 68°
2026-05-05 23:00 52.35004 13.48777 154 ft 92 kts 69°
2026-05-05 23:01 52.35172 13.49491 154 ft 43 kts 69°
2026-05-05 23:01 52.35290 13.49866 154 ft 32 kts 48°
2026-05-05 23:01 52.35395 13.50022 154 ft 13 kts 39°
2026-05-05 23:01 52.35453 13.50099 154 ft 0 kts 38°
2026-05-05 23:02 52.35465 13.50115 154 ft 5 kts 38°
2026-05-05 23:02 52.35510 13.50173 154 ft 11 kts 38°
2026-05-05 23:03 52.35572 13.50253 154 ft 12 kts 38°
2026-05-05 23:03 52.35616 13.50368 154 ft 13 kts 68°
2026-05-05 23:03 52.35649 13.50507 154 ft 14 kts 69°
2026-05-05 23:03 52.35684 13.50658 154 ft 15 kts 69°
2026-05-05 23:04 52.35728 13.50810 154 ft 15 kts 45°
2026-05-05 23:04 52.35826 13.50792 154 ft 15 kts 338°
2026-05-05 23:04 52.35916 13.50823 154 ft 15 kts 63°
2026-05-05 23:04 52.35955 13.50987 154 ft 16 kts 69°
2026-05-05 23:05 52.35996 13.51157 155 ft 16 kts 68°
2026-05-05 23:05 52.36047 13.51225 155 ft 8 kts
2026-05-05 23:05 52.36091 13.51227 155 ft 0 kts
2026-05-05 23:06 52.36093 13.51227 155 ft 1 kts
2026-05-05 23:06 52.36109 13.51228 155 ft 2 kts
2026-05-05 23:06 52.36115 13.51228 155 ft 0 kts